Weather in Cherni Vryh

Bulgaria     43°38′52″N   23°24′37″E
temp.,
°C
wind,
m/s
gust,
m/s
humid.,
%
clouds,
%
prec.,
mm/h
press.,
hPa
HPBL,
m
19 june, sat
sat1900:00+18e2292100 0.9 101426
03:00+18e2295100 2.3 101463
06:00+17s2396100 1.6 101478
09:00+18ssw229397 2.5 1014103
12:00+25ne11656 1.8 1013703
15:00+26e335415 3.2 10131578
18:00+23ese6768100 0.3 1012601
21:00+20ese3782100 1.4 1014132
20 june, sun
sun2000:00+18ene2288100 0.1 101530
03:00+17ene229313 0.1 101440
06:00+16se119519 0.0 101411
09:00+20ese1181100 0.0 1014436
12:00+24e216037 0.0 10141132
15:00+26e125273 0.3 10121679
18:00+25s336297 0.1 1011301
21:00+22ssw337137 0.1 101135
21 june, mon
mon2100:00+20ssw34765 0.0 101152
03:00+19sw22785 0.0 101124
06:00+18wsw12780 0.0 101111
09:00+23w12640 0.0 1011324
12:00+28nw12501 0.0 10111040
15:00+31nw344398 0.0 10101937
18:00+31se12421 0.0 10081778
21:00+26sse3461100 0.3 100952
22 june, tue
tue2200:00+23wsw117871 4.3 101011
03:00+21nw228514 4.4 101014
06:00+19w2284100 0.6 101123
09:00+24wsw127340 0.6 1011300
12:00+30wnw12520 0.0 1011844
15:00+33nnw234018 0.0 10101359
18:00+28sse44571 0.3 1010112
21:00+25s47740 0.3 101091
23 june, wed
wed2300:00+25w45670 0.0 101163
03:00+23w22660 0.0 101117
06:00+21wnw22730 0.0 101213
09:00+26nw22590 0.0 1013264
12:00+32nw34440 0.0 1013760
15:00+35n36320 0.0 10132051
18:00+36ene12310 0.0 10121353
21:00+29sse33500 0.1 101319